Location: Galliano
(29.4422°N, 90.2993°W)
Time: 10:01:59
(UTC-06:00)

N. Korean satellite - Visible Passes

Search period start: 24 February 2018 00:00
Search period end: 06 March 2018 00:00
Orbit: 459 x 514 km, 97.2° (Epoch: 24 February)

Date Brightness Start Highest point End Pass type
(mag) Time Alt. Az. Time Alt. Az. Time Alt. Az.
24 Feb 9.1 06:04:17 10° NE 06:07:34 30° E 06:10:52 10° SSE visible
25 Feb 10.3 05:41:41 10° ENE 05:43:44 14° E 05:45:48 10° SE visible
26 Feb 10.0 18:54:51 10° SW 18:56:51 15° W 18:58:52 10° WNW visible
27 Feb 8.6 18:29:53 10° SSW 18:33:00 32° W 18:36:10 10° NNW visible
01 Mar 10.3 05:40:14 10° ENE 05:42:13 14° E 05:44:11 10° SE visible
02 Mar 9.9 18:53:07 10° SW 18:55:15 15° W 18:57:25 10° WNW visible
03 Mar 8.6 18:28:13 10° SSW 18:31:24 34° W 18:34:38 10° NNW visible
05 Mar 10.3 05:38:46 10° ENE 05:40:38 13° E 05:42:30 10° SE visible
